Regional Weather Roundup
Issued by NWS Grand Forks, ND

Home | Current Version | Previous Version | Text Only | Print | Product List | Glossary Off
Versions: 1 2 3 4 5 6 7 8 9 10 11 12 13 14 15 16 17 18 19 20 21 22 23 24 25 26 27 28 29 30 31 32 33 34 35 36 37 38 39 40 41 42 43 44 45 46 47 48 49 50

588
ASUS43 KFGF 230710
RWRFGF
PRAIRIE TO PINES  WEATHER ROUNDUP
NATIONAL WEATHER SERVICE EASTERN NORTH DAKOTA/GRAND FORKS ND
100 AM CST THU FEB 23 2017

 **SATELLITE DATA USED TO AUGMENT SKY COVER AT AUTOMATED STATIONS**
 *****  WEATHER ACROSS EASTERN NORTH DAKOTA  *****

CITY           SKY/WX    TMP DP  RH WIND       PRES   REMARKS
GRAND FORKS    CLOUDY    29  21  72 N8        29.98R WCI  21
GRAND FRKS AFB MOCLDY    29  24  82 N8        29.99R WCI  21
DEVILS LAKE    FAIR      27  23  85 NW10      29.97S WCI  17
FARGO          FAIR      30  27  88 N13       29.96R WCI  20
WAHPETON ARPT  FAIR      30  27  86 N10       29.95S WCI  21
$$

 ***** WEATHER ACROSS CENTRAL AND WESTERN NORTH DAKOTA  *****

CITY           SKY/WX    TMP DP  RH WIND       PRES   REMARKS
BISMARCK       CLOUDY    29  24  82 NW3       30.00S
MINOT          CLOUDY    32  27  81 SW5       29.98R
JAMESTOWN      FAIR      26  23  88 NW7       29.95F WCI  18
MINOT AFB      CLOUDY    31  28  90 W7        29.98R WCI  24
GARRISON         N/A     28  25  88 NW8       29.98S WCI  20
WILLISTON      CLOUDY    27  25  92 CALM      30.00F
DICKINSON      MOCLDY    24  21  88 N5        29.93F WCI  18
HETTINGER      CLOUDY    28  25  88 N7        29.95S WCI  21
$$

 *****  OTHER AIRPORT OBSERVATIONS IN OUR AREA  *****

CITY           SKY/WX    TMP DP  RH WIND       PRES   REMARKS
WALHALLA       NOT AVBL
GRAFTON AIRPOR CLOUDY    28  25  86 N9        30.01R WCI  20
VALLEY CITY AR FAIR      27  27 100 N9        29.97S WCI  17
CANDO          NOT AVBL
CAVALIER APRT    N/A     28  23  80 N7        30.00R WCI  21
GWINNER        FAIR      28  27  93 N12       29.94F WCI  18
SHEYENNE NWR     N/A     27  24  88 N5        29.95S WCI  22
ROLLA          FAIR      19  19 100 NW8       29.97S WCI   9
 ***** THE ABOVE OBSERVATIONS ARE NON NWS ARE NOT QUALITY
       CONTROLLED AND MAY MIS-REPORT RAIN FOR SNOW...
$$

  *****  WEATHER ACROSS NORTHERN MINNESOTA  *****

CITY           SKY/WX    TMP DP  RH WIND       PRES   REMARKS
FLAG ISLAND    CLOUDY    27  18  69 NW22      29.92R WCI  12
WARROAD        CLOUDY    27  19  74 NW8       29.94R WCI  18
ROSEAU         MOCLDY    27  19  74 N12       29.95R WCI  16
HALLOCK        CLOUDY    28  25  86 N8        29.98S WCI  20
THF RVR FALLS  FAIR      25  23  92 NW7       29.97R WCI  17
BAUDETTE       CLOUDY    25  16  68 NW13      29.90R WCI  14
WASKISH        FAIR      25  19  80 N5        29.92R WCI  19
CROOKSTON      FAIR      28  25  86 N7        29.99R WCI  21
GREENBUSH NDAW   N/A     18  18 100 W5          N/A  WCI  11
$$
  *****  WEATHER ACROSS CENTRAL AND WEST MINNESOTA  *****

CITY           SKY/WX    TMP DP  RH WIND       PRES   REMARKS
FOSSTON        FAIR      27  23  86 N9        29.94S WCI  17
BEMIDJI        CLOUDY    27  22  80 N13       29.90R WCI  17
PARK RAPIDS    FAIR      21  17  84 NW6       29.89R WCI  13
ELBOW LAKE     FAIR      29  28  93 NW9       29.92S WCI  21
WADENA         FAIR      27  25  93 CALM      29.90R
DETROIT LAKES  FAIR      28  27  93 N10       29.93R WCI  19
MOORHEAD       FAIR      30  27  86 N14       29.97R WCI  20
FERGUS FALLS   FAIR      28  27  93 N6        29.97S WCI  22
MORRIS MN      FAIR      30  28  93 N15       29.89S WCI  19
STAPLES        FAIR      27  25  93 NW9       29.89R WCI  17
$$
  *****  WEATHER ELSEWHERE ACROSS MINNESOTA  *****

CITY           SKY/WX    TMP DP  RH WIND       PRES   REMARKS
DULUTH         CLOUDY    31  28  89 N13G21    29.79R WCI  21
INTRNTL FALLS  CLOUDY    26  20  77 NW7       29.87R WCI  18
ELY            CLOUDY    28  25  86 CALM      29.79R
CLOQUET        CLOUDY    30  28  93 NW12      29.80R WCI  21
WHEATON        FAIR      30  27  86 NW9       29.96R WCI  22
BRAINERD       FAIR      27  25  92 NW8       29.88R WCI  19
HIBBING        FAIR      26  26 100 NW10      29.82R WCI  16
ALEXANDRIA     FAIR      30  25  81 N13       29.89R WCI  20
SAINT CLOUD    FAIR      32  28  85 N13       29.85R WCI  22
MINNEAPOLIS    CLOUDY    37  30  75 N15       29.82R
$$

  *****  WEATHER ACROSS SOUTH DAKOTA  *****

CITY           SKY/WX    TMP DP  RH WIND       PRES   REMARKS
SIOUX FALLS    CLOUDY    34  31  88 N14G26    29.87F WCI  25
BROOKINGS      CLOUDY    30  27  88 N15       29.90S WCI  19
WATERTOWN      FAIR      27  23  85 N8        29.92R WCI  19
HURON          CLOUDY    31  26  82 N9        29.96R WCI  23
SISSETON         N/A     29  26  89 N15       29.93R WCI  18
ABERDEEN       FAIR      26  21  81 N8        29.99R WCI  18
MITCHELL       CLOUDY    33  30  88 N12       29.94S WCI  24
PIERRE         CLOUDY    32  26  78 NE15      29.92F WCI  22
MOBRIDGE       CLOUDY    33  26  75 CALM      29.96R
RAPID CITY     CLOUDY    31  26  82 NE8       29.91R WCI  23
$$

  *****  SOME WEATHER IN NEARBY STATES *****

CITY           SKY/WX    TMP DP  RH WIND       PRES   REMARKS
GLASGOW MT     MOCLDY    24  22  91 N3        29.99S
GREAT FALLS MT CLOUDY    29  25  85 NW8       29.94S WCI  21
CHEYENNE WY    CLOUDY    29  28  96 E12       29.72F WCI  19
SCOTTSBLUFF NE CLOUDY    35  31  85 NE18      29.77F WCI  24
OMAHA NE       FAIR      43  36  76 N7        29.80R
DES MOINES IA  FAIR      47  41  80 N8        29.78S
DAVENPORT IA   FAIR      46  41  82 W7        29.71R
CHICAGO IL     FAIR      57  50  77 W12       29.63R
EAU CLAIRE WI  CLOUDY    39  34  82 N12       29.72R
LA CROSSE WI   MOCLDY    47  40  76 NW15      29.71R
$$

  *****  SOME NATIONAL WEATHER *****

CITY           SKY/WX    TMP DP  RH WIND       PRES   REMARKS
LA GUARDIA NY  MOCLDY    45  40  82 NE9       29.89R
RALEIGH NC     CLOUDY    55  51  86 CALM      29.93S
ATLANTA GA     FAIR      58  56  93 E9        29.87F
NEW ORLEANS LA FAIR      59  57  93 CALM      29.83F
OKLAHOMA CITY  MOCLDY    53  43  68 SE7       29.63F
ALBUQUERQUE NM MOCLDY    47  28  47 SE6       29.83F
SALT LAKE CITY CLOUDY    31  29  92 S7        29.75F WCI  24
LOS ANGELES CA FAIR      56  34  43 NW13G20   30.07S
BOISE ID       LGT SNOW  32  28  85 NW15      29.82F FOG     WCI  22
SEATTLE WA     FAIR      37  34  89 CALM      30.21R
$$

*** WEATHER ACROSS MANITOBA...SASKATCHEWAN AND ONTARIO ***
                ***ONTARIO***

CITY           SKY/WX    TMP DP  RH WIND       PRES   REMARKS
GERALDTON      CLOUDY    30  21  69 NW8       29.70S WCI  23
THUNDER BAY    CLOUDY    32  23  69 N6        29.76R
SIOUX LOOKOUT  FLURRIES  25  16  68 NW16G22   29.81R WCI  12
TORONTO        MOCLDY    45  45 100 E5        29.68S
BIG TROUT LK   LGT SNOW   0  -4  85 NW14      29.85R WCI -19
PICKLE LAKE    NOT AVBL
DRYDEN         CLOUDY    25  16  68 NW14G20   29.83R WCI  13
KENORA         NOT AVBL
$$
                *** MANITOBA***

CITY           SKY/WX    TMP DP  RH WIND       PRES   REMARKS
BRANDON        CLOUDY    27  21  80 NE7       30.00R WCI  19
DAUPHIN        CLOUDY    21  14  73 E5        30.05R WCI  15
ISLAND LAKE    FLURRIES   0  -6  78 NW6       29.98R WCI -12
PILOT MOUND      N/A     27  21  80 N3          N/A
THE PAS        PTCLDY     5   0  78 NW8       30.09R WCI  -8
THOMPSON       FLURRIES  -2  -9  71 N10G17    30.08R WCI -19
WINNIPEG       MOCLDY    25  19  80 N8        30.01R WCI  16
LYNN LAKE      CLOUDY    -2  -8  78 NE7       30.11R WCI -16
CHURCHILL      CLEAR     -8 -13  77 N12       30.22R WCI -27
GILLAM         FLURRIES  -8 -13  77 N14       30.07R WCI -28
$$
                ***SASKATCHEWAN***

CITY           SKY/WX    TMP DP  RH WIND       PRES   REMARKS
ESTEVAN        CLOUDY    30  28  93 W7        29.98S WCI  23
KINDERSLEY     MOCLDY    23  19  86 SW3       30.06R
LLOYDMINSTER   FLURRIES  19  16  86 NW5       30.05R WCI  13
PRINCE ALBERT  FLURRIES  19  14  79 CALM      30.06S
REGINA         CLOUDY    25  19  80 N18G24    30.03R WCI  11
YORKTON        FLURRIES  21  16  79 N12       30.04R WCI   9
N. BATTLEFORD  CLOUDY    25  19  80 NW12      30.07S WCI  14
LA RONGE       FLURRIES  14   9  79 NE5       30.08R WCI   6
SASKATOON      PTCLDY    21  18  86 SW5       30.06F WCI  15
SWIFT CURRENT  LGT SNOW  21  21 100 N14       30.00S WCI   8
$$
NOTE: THESE ARE AUTOMATED STATIONS WITH LIMITED QUALITY CONTROL
      "FAIR" INDICATES FEW OR NO CLOUDS BELOW 12,000 FEET WITH NO
      SIGNIFICANT WEATHER AND/OR OBSTRUCTIONS TO VISIBILITY.
      SKY/WX - SKY CONDITION AND SIGNIFICANT WEATHER.
      TMP - AIR TEMPERATURE.    DP   - DEWPOINT TEMPERATURE.
      RH  - RELATIVE HUMIDITY.  PRES - PRESSURE.
      HX  - HEAT INDEX.         WCI  - WIND CHILL INDEX.
$




USA.gov is the U.S. government's official web portal to all federal, state and local government web resources and services.